Location: Newark
(39.1981°N, 120.2353°W)
Time: 02:08:57
(UTC+00:00)

ISS - Visible Passes

Search period start: 24 July 2019 00:00
Search period end: 03 August 2019 00:00
Orbit: 409 x 418 km, 51.6° (Epoch: 24 July)

Date Brightness Start Highest point End Pass type
(mag) Time Alt. Az. Time Alt. Az. Time Alt. Az.
24 Jul -0.9 03:52:32 10° WNW 03:55:01 19° NNW 03:57:30 10° NNE visible
24 Jul -0.6 07:08:35 10° NNW 07:10:00 14° N 07:10:00 14° N visible
25 Jul -0.5 04:42:17 10° NNW 04:43:08 11° N 04:44:00 10° N visible
25 Jul -0.7 06:19:36 10° NNW 06:21:02 12° NNE 06:22:06 11° NNE visible
26 Jul -0.7 03:52:00 10° NW 03:53:32 12° NNW 03:55:04 10° NNE visible
26 Jul -0.6 05:30:40 10° N 05:31:26 11° N 05:32:10 10° NNE visible
26 Jul -0.6 07:06:12 10° NNW 07:07:03 15° NNW 07:07:03 15° NNW visible
27 Jul -1.2 06:17:08 10° NNW 06:19:15 18° NNE 06:19:15 18° NNE visible
28 Jul -0.5 03:51:51 10° N 03:52:06 10° N 03:52:22 10° N visible
28 Jul -1.0 05:28:06 10° NNW 05:29:58 14° NNE 05:31:28 11° NE visible
28 Jul -0.5 07:03:56 10° NW 07:04:17 12° NW 07:04:17 12° NW visible
29 Jul -0.9 04:39:05 10° N 04:40:21 12° N 04:41:37 10° NNE visible
29 Jul -1.5 06:14:44 10° NW 06:16:32 24° NNW 06:16:32 24° NNW visible
30 Jul -0.7 03:50:07 10° N 03:50:40 10° N 03:51:15 10° NNE visible
30 Jul -1.9 05:25:36 10° NNW 05:28:20 23° NNE 05:28:48 22° NE visible
31 Jul -1.3 04:36:30 10° NNW 04:38:47 17° NNE 04:41:03 10° ENE visible
31 Jul -1.4 06:12:31 10° NW 06:13:55 23° NW 06:13:55 23° NW visible
01 Aug -1.1 03:47:25 10° NNW 03:49:09 13° NNE 03:50:52 10° NE visible
01 Aug -3.0 05:23:13 10° NW 05:26:14 47° NNE 05:26:14 47° NNE visible
02 Aug -2.4 04:33:59 10° NW 04:37:00 30° NNE 04:38:36 20° ENE visible
02 Aug -1.0 06:10:41 10° WNW 06:11:25 15° WNW 06:11:25 15° WNW visible
